Regional Weather Roundup
Issued by NWS Dallas/Fort Worth, TX

Home | Current Version | Previous Version | Text Only | Print | Product List | Glossary On
Versions: 1 2 3 4 5 6 7 8 9 10 11 12 13 14 15 16 17 18 19 20 21 22 23 24 25 26 27 28 29 30 31 32 33 34 35 36 37 38 39 40 41 42 43 44 45 46 47 48 49 50
000
ASUS44 KFWD 222310
RWRFWD
NORTH TEXAS HOURLY WEATHER ROUNDUP
NATIONAL WEATHER SERVICE FORT WORTH TX
500 PM CST THU FEB 22 2018

NOTE: "FAIR" INDICATES FEW OR NO CLOUDS BELOW 12,000 FEET WITH NO
SIGNIFICANT WEATHER AND/OR OBSTRUCTIONS TO VISIBILITY.

TXZ118-119-230000-
DALLAS/FORT WORTH METROPLEX

CITY           SKY/WX    TMP DP  RH WIND       PRES   REMARKS
DFW AIRPORT    CLOUDY    39  36  89 NW10      30.20F WCI  32
DALLAS LOVE    CLOUDY    38  36  92 NW8       30.23S WCI  32
FTW MEACHAM    CLOUDY    37  35  92 NW6       30.22S WCI  32
DAL-EXECUTIVE  CLOUDY    38  37  97 NW10      30.21S WCI  31
FTW-ALLIANCE   DRIZZLE   36  35  96 NW5       30.22F WCI  32
FTW-NAS-JRB    CLOUDY    37  34  89 N5        30.23S WCI  33
FTW-SPINKS     CLOUDY    36  36 100 NW6       30.24R FOG     WCI  31
ARLINGTON      CLOUDY    36  36 100 NW6       30.22S WCI  31
GRAND PRAIRIE  CLOUDY    37  37 100 CALM      30.23F
ADDISON        CLOUDY    37  36  93 NW7       30.23R FOG     WCI  32
MESQUITE       CLOUDY    37  37 100 NW8       30.22R FOG     WCI  31
LANCASTER      CLOUDY    38  37  95 NW9       30.23S WCI  32
$$

TXZ091>094-102>105-117-120-121-131>134-230000-
NORTH CENTRAL TEXAS

CITY           SKY/WX    TMP DP  RH WIND       PRES   REMARKS
SHRMAN/DENISON DRIZZLE   36  35  98 CALM      30.23R
GAINESVILLE    CLOUDY    34  33  96 CALM      30.23S
BOWIE          CLOUDY    32  32  99 W5        30.21R WCI  28
BRIDGEPORT     CLOUDY    33  33 100 CALM      30.24S
DECATUR        CLOUDY    33  32  97 CALM      30.20S
DENTON         CLOUDY    35  35 100 N5        30.22F WCI  31
MCKINNEY       LGT RAIN  37  37 100 NW10      30.22R FOG     WCI  30
BONHAM         LGT RAIN  36  35  98 NW7       30.22R WCI  30
GREENVILLE     CLOUDY    43  43 100 NW7       30.21S FOG     WCI  39
ROCKWALL       CLOUDY    38  38 100 NW8       30.22R WCI  33
TERRELL        LGT RAIN  42  39  89 NW8       30.21S FOG     WCI  37
WAXAHACHIE     CLOUDY    37  37 100 NW8       30.23S FOG     WCI  31
CLEBURNE       CLOUDY    36  36 100 NW9       30.23S WCI  29
GRANBURY       CLOUDY    37  36  96 NW5       30.24F WCI  33
$$

TXZ083>090-098>101-113>116-127>130-139>142-154-155-230000-
WESTERN NORTH TEXAS

CITY           SKY/WX    TMP DP  RH WIND       PRES   REMARKS
WICHITA FALLS  CLOUDY    33  31  92 CALM      30.19F
WF-KICKAPOO    CLOUDY    33  32  96 CALM      30.23S
VERNON         CLOUDY    36  30  79 CALM      30.19F
ABILENE        CLOUDY    31  31 100 SE3       30.18S
ABILENE-DYESS  CLOUDY    33  32  94 CALM      30.17F
GRAHAM           N/A     33  32  98 CALM      30.20S
BRECKENRIDGE   CLOUDY    33  33 100 CALM      30.20F
CISCO          CLOUDY    32  32 100 CALM      30.18F
EASTLAND       CLOUDY    32  31  96 CALM      30.20S
RANGER         CLOUDY    32  32 100 CALM      30.20R
MINERAL WELLS  CLOUDY    34  32  92 W5        30.20S WCI  30
STEPHENVILLE   CLOUDY    34  33  95 CALM      30.22F
COMANCHE       CLOUDY    35  35 100 CALM      30.20F
BROWNWOOD      PTSUNNY   37  36  93 CALM      30.20F
COLEMAN        CLOUDY    36  34  95 NE3       30.18S
$$

TXZ143>147-156>162-174-175-230000-
CENTRAL TEXAS

CITY           SKY/WX    TMP DP  RH WIND       PRES   REMARKS
WACO           CLOUDY    40  38  93 N8        30.23R WCI  34
WACO-TSTC      RAIN      39  39 100 NW7       30.23S WCI  34
WACO-MCGREGOR  CLOUDY    40  39  97 NW10      30.23R WCI  33
HILLSBORO      CLOUDY    39  39 100 NW10      30.21S WCI  32
CORSICANA      LGT RAIN  42  41  96 NW10      30.22S FOG     WCI  36
MEXIA          CLOUDY    41  40  96 NW6       30.20S WCI  37
HEARNE         CLOUDY    41  41 100 NW10      30.22S FOG     WCI  35
CAMERON        CLOUDY    41  40  98 N7        30.22S FOG     WCI  36
TEMPLE         LGT RAIN  40  40 100 NW9       30.22R WCI  34
KILLEEN        CLOUDY    37  37 100 N9        30.20R FOG     WCI  31
KILLEEN-SKYLRK CLOUDY    39  39 100 NW8       30.22R FOG     WCI  33
FORT HOOD      CLOUDY    41  41 100 W7        30.20F FOG     WCI  36
GATESVILLE     FOG       37  37 100 NW5       30.23R VSB 1   WCI  34
HAMILTON       CLOUDY    37  37 100 NW8       30.21S FOG     WCI  30
LAMPASAS       CLOUDY    38  38  97 N3        30.19S FOG
$$

TXZ095>097-106>112-122>126-135>138-148>153-164>167-230000-
EAST TEXAS

CITY           SKY/WX    TMP DP  RH WIND       PRES   REMARKS
PARIS          LGT RAIN  47  47 100 SW3       30.20R FOG
SULPHUR SPRNGS LGT RAIN  47  47 100 W6        30.21R
MOUNT PLEASANT CLOUDY    49  49  99 CALM      30.19R
GILMER         FOG       53  53 100 CALM      30.17R VSB 1/2
MINEOLA        LGT RAIN  48  46  93 W5        30.18S FOG
TYLER          FOG       50  50 100 W6        30.18R VSB 1/2
LONGVIEW       TSTM      57  57 100 E7        30.14F VSB 1/2
MARSHALL       CLOUDY    55  53  94 CALM      30.17F
ATHENS         CLOUDY    41  41 100 NW3       30.19S
PALESTINE      CLOUDY    46  46 100 W7        30.21R FOG
JACKSONVILLE   CLOUDY    55  55 100 W8        30.18S
HENDERSON      TSTM      58  58  99 CALM      30.16S
CENTER         RAIN      61  60  96 E8        30.17S
NACOGDOCHES    CLOUDY    64  63  96 CALM      30.16R FOG
LUFKIN         CLOUDY    68  67  96 CALM      30.14S
$$

SUPPLEMENTAL OBSERVATIONS (NWS FORT WORTH AREA)

CITY           SKY/WX    TMP DP  RH WIND       PRES   REMARKS
PAT MAYSE LAKE   N/A     43  41  93 SW8         N/A  WCI  38
GREENVILLE       N/A     43  41  93 NW6G14      N/A  WCI  39
CEDAR HILL       N/A     37  36  93 CALM        N/A
GRANBURY         N/A     36  32  87 NW6         N/A  WCI  31
MCGREGOR         N/A     39  36  87 NW7         N/A  WCI  34
TEMPLE           N/A     39  37  93 NW9         N/A  WCI  33
$$

SUPPLEMENTAL OBSERVATIONS (NWS NORMAN AREA)

CITY           SKY/WX    TMP DP  RH WIND       PRES   REMARKS
GOODLETT         N/A     35  32  90 S5        30.16S WCI  31
ODELL            N/A     33  32  96 W1        30.19S
CROWELL        LGT RAIN  34  33  94 SW2       30.19S
KNOX CITY      LGT RAIN  34  31  88 SE6       30.19S WCI  29
SEYMOUR        LGT RAIN  32  31  93 S2        30.20S
MILLERS CREEK    N/A     34  30  86 SW1         N/A
$$

SUPPLEMENTAL OBSERVATIONS (NWS SAN ANGELO AREA)

CITY           SKY/WX    TMP DP  RH WIND       PRES   REMARKS
WEINERT          N/A     33  29  86 S2        30.20R
HASKELL          N/A     33  31  92 S3        30.19S
THROCKMORTON     N/A     34  32  93 SE1       30.20F
STAMFORD         N/A     33  30  89 S1        30.20S
CLYDE            N/A     32  31  98 CALM      30.18S
HAMBY            N/A     34  32  93 S2          N/A
IVIE RESERVOIR   N/A     39  36  87 CALM        N/A
COLORADO BEND    N/A     37  36  93 N3          N/A
$$

SUPPLEMENTAL OBSERVATIONS (NWS SHREVEPORT AREA)

CITY           SKY/WX    TMP DP  RH WIND       PRES   REMARKS
CLARKSVILLE      N/A     46  45  93 E2          N/A
TEXARKANA        N/A     48  46  93 E3          N/A
LINDEN           N/A     52  50  93 E2          N/A
GILMER           N/A     54  52  94 CALM        N/A
HENDERSON        N/A     59  57  94 CALM        N/A
LUFKIN           N/A     66  64  94 MISG        N/A
N SABINE NF      N/A    N/A N/A N/A MISG        N/A
S SABINE NF      N/A     64  61  88 E1          N/A
$$

SUPPLEMENTAL OBSERVATIONS ARE A COLLECTION OF AUTOMATED INSTRUMENTS
THAT ARE MAINTAINED BY A VARIETY OF FEDERAL AND STATE AGENCIES.
CERTAIN ELEMENTS...SUCH AS HUMIDITY VALUES AND SUSTAINED WIND
SPEEDS...MAY BE APPROXIMATED.





USA.gov is the U.S. government's official web portal to all federal, state and local government web resources and services.